This is the latest recevied weather packets stored in our database for station/object KV4OP. If no packets are shown the sender has not sent any weather packets the latest 10 day(s).
| Time | Temp. | Humidity | Pressure | Rain* | Wind** | Luminosity | Snow |
|---|---|---|---|---|---|---|---|
| 1788286548 | 31.11° C | 77% | 1017.3 hPa | 0 mm | - | - | - |
| 1788286227 | 31.11° C | 77% | 1017.3 hPa | 0 mm | - | - | - |
| 1788285927 | 30.56° C | 78% | 1017.1 hPa | 0 mm | - | - | - |
| 1788285636 | 30.56° C | 81% | 1017.2 hPa | 0 mm | - | - | - |
| 1788285327 | 30° C | 82% | 1017.2 hPa | 0 mm | - | - | - |
| 1788285027 | 29.44° C | 83% | 1017.2 hPa | 0 mm | - | - | - |
| 1788284727 | 29.44° C | 84% | 1017.4 hPa | 0 mm | - | - | - |
| 1788284436 | 29.44° C | 82% | 1017.4 hPa | 0.25 mm | - | - | - |
| 1788284127 | 30° C | 82% | 1017.5 hPa | 0.51 mm | - | - | - |
| 1788283827 | 29.44° C | 85% | 1017.6 hPa | 0.51 mm | - | - | - |
| 1788283527 | 28.89° C | 87% | 1017.6 hPa | 0.51 mm | - | - | - |
| 1788283236 | 28.33° C | 87% | 1017.7 hPa | 0.51 mm | - | - | - |
| 1788282928 | 28.33° C | 87% | 1017.9 hPa | 0.51 mm | - | - | - |
| 1788282627 | 28.33° C | 87% | 1017.9 hPa | 0.51 mm | - | - | - |
| 1788282327 | 28.33° C | 88% | 1018 hPa | 0.51 mm | - | - | - |
| 1788282037 | 28.33° C | 89% | 1017.9 hPa | 0.51 mm | - | - | - |
| 1788281727 | 27.78° C | 89% | 1018 hPa | 0.51 mm | - | - | - |
| 1788281427 | 27.78° C | 90% | 1018 hPa | 0.51 mm | - | - | - |
| 1788281127 | 27.78° C | 90% | 1018.1 hPa | 0.51 mm | - | - | - |
| 1788280836 | 27.78° C | 89% | 1018 hPa | 0.25 mm | - | - | - |
| 1788280527 | 27.78° C | 87% | 1018.1 hPa | 0 mm | - | - | - |
| 1788280227 | 27.78° C | 86% | 1018.1 hPa | 0 mm | - | - | - |
| 1788279927 | 27.78° C | 85% | 1018.1 hPa | 0 mm | - | - | - |
| 1788279637 | 28.33° C | 82% | 1018.1 hPa | 0 mm | - | - | - |
| 1788279327 | 29.44° C | 79% | 1018.1 hPa | 0 mm | - | - | - |
* Rain latest hour (hover to see other rain measurements)
** Current wind speed in m/s (hover to see current wind gust speed)